Time,TemperatureF,DewpointF,PressureIn,WindDirection,WindDirectionDegrees,WindSpeedMPH,WindSpeedGustMPH,Humidity,HourlyPrecipIn,Conditions,Clouds,dailyrainin,SoftwareType,DateUTC
2013-10-08 00:00:00,61.9,61.9,0.00,WSW,239,3.5,3.5,100,0.00,OVC,OVC,0.19,WeatherDisplay:10.37,2013-10-08 04:00:00,
2013-10-08 00:01:00,61.9,61.9,0.00,WSW,244,3.5,3.5,100,0.00,OVC,OVC,0.00,WeatherDisplay:10.37,2013-10-08 04:01:00,
2013-10-08 00:04:00,61.9,61.9,0.00,SW,230,3.0,3.0,100,0.00,BKN,BKN,0.00,WeatherDisplay:10.37,2013-10-08 04:04:00,
2013-10-08 00:09:00,61.7,61.7,0.00,WNW,295,3.5,3.5,100,0.00,BKN,BKN,0.00,WeatherDisplay:10.37,2013-10-08 04:09:00,
2013-10-08 00:14:00,61.6,61.6,0.00,SSW,213,4.6,4.6,100,0.00,BKN,BKN,0.00,WeatherDisplay:10.37,2013-10-08 04:14:00,
2013-10-08 00:19:00,61.5,61.5,0.00,WSW,244,4.6,4.6,100,0.00,BKN,BKN,0.00,WeatherDisplay:10.37,2013-10-08 04:19:00,
2013-10-08 00:24:00,61.4,61.4,0.00,SSE,150,1.2,0.0,100,0.00,BKN,BKN,0.00,WeatherDisplay:10.37,2013-10-08 04:24:00,
2013-10-08 00:29:00,61.3,61.3,0.00,WSW,248,5.8,5.8,100,0.00,BKN,BKN,0.00,WeatherDisplay:10.37,2013-10-08 04:29:00,
2013-10-08 00:34:00,61.3,61.3,0.00,West,281,2.3,2.4,100,0.00,BKN,BKN,0.00,WeatherDisplay:10.37,2013-10-08 04:34:00,
2013-10-08 00:39:00,61.1,61.1,0.00,WSW,244,2.3,2.3,100,0.00,BKN,BKN,0.00,WeatherDisplay:10.37,2013-10-08 04:39:00,
2013-10-08 00:44:00,61.1,61.1,0.00,WSW,256,2.3,2.3,100,0.00,BKN,BKN,0.00,WeatherDisplay:10.37,2013-10-08 04:44:00,
2013-10-08 00:49:00,60.9,60.9,0.00,WSW,254,2.3,2.3,100,0.00,BKN,BKN,0.00,WeatherDisplay:10.37,2013-10-08 04:49:00,
2013-10-08 00:54:00,60.8,60.8,0.00,WSW,240,5.2,5.2,100,0.00,BKN,BKN,0.00,WeatherDisplay:10.37,2013-10-08 04:54:00,
2013-10-08 00:59:00,60.5,60.5,0.00,WNW,299,6.9,6.9,100,0.00,BKN,BKN,0.00,WeatherDisplay:10.37,2013-10-08 04:59:00,
2013-10-08 01:04:00,60.4,60.4,0.00,West,277,5.8,5.8,100,0.00,OVC,OVC,0.00,WeatherDisplay:10.37,2013-10-08 05:04:00,
2013-10-08 01:09:00,60.3,60.3,0.00,WSW,251,3.5,3.5,100,0.00,OVC,OVC,0.00,WeatherDisplay:10.37,2013-10-08 05:09:00,
2013-10-08 01:14:00,60.1,60.1,0.00,WSW,257,4.6,4.6,100,0.00,OVC,OVC,0.00,WeatherDisplay:10.37,2013-10-08 05:14:00,
2013-10-08 01:19:00,59.9,59.9,0.00,WSW,243,3.5,3.5,100,0.00,OVC,OVC,0.00,WeatherDisplay:10.37,2013-10-08 05:19:00,
2013-10-08 01:24:00,59.8,59.8,0.00,WSW,258,5.8,5.8,100,0.00,OVC,OVC,0.00,WeatherDisplay:10.37,2013-10-08 05:24:00,
2013-10-08 01:29:00,59.6,59.6,0.00,SSW,196,3.5,3.5,100,0.00,OVC,OVC,0.00,WeatherDisplay:10.37,2013-10-08 05:29:00,
2013-10-08 01:34:00,59.5,59.5,0.00,SW,234,6.9,6.9,100,0.00,OVC,OVC,0.00,WeatherDisplay:10.37,2013-10-08 05:34:00,
2013-10-08 01:39:00,59.4,59.4,0.00,West,261,3.9,3.9,100,0.00,OVC,OVC,0.00,WeatherDisplay:10.37,2013-10-08 05:39:00,
2013-10-08 01:44:00,59.4,59.4,0.00,WNW,282,3.5,3.5,100,0.00,OVC,OVC,0.00,WeatherDisplay:10.37,2013-10-08 05:44:00,
2013-10-08 01:49:00,59.3,59.3,0.00,SSE,152,3.5,3.5,100,0.00,OVC,OVC,0.00,WeatherDisplay:10.37,2013-10-08 05:49:00,
2013-10-08 01:54:00,59.2,59.2,0.00,SW,224,3.5,3.5,100,0.00,OVC,OVC,0.00,WeatherDisplay:10.37,2013-10-08 05:54:00,
2013-10-08 01:59:00,59.0,59.0,0.00,West,275,3.5,3.5,100,0.00,OVC,OVC,0.00,WeatherDisplay:10.37,2013-10-08 05:59:00,
2013-10-08 02:04:00,59.0,59.0,0.00,West,260,4.6,4.6,100,0.00,CLR,CLR,0.00,WeatherDisplay:10.37,2013-10-08 06:04:00,
2013-10-08 02:09:00,58.8,58.8,0.00,WSW,256,5.7,5.7,100,0.00,CLR,CLR,0.00,WeatherDisplay:10.37,2013-10-08 06:09:00,
2013-10-08 02:14:00,58.7,58.7,0.00,West,280,3.5,3.5,100,0.00,CLR,CLR,0.00,WeatherDisplay:10.37,2013-10-08 06:14:00,
2013-10-08 02:19:00,58.5,58.5,0.00,WSW,250,6.2,6.2,100,0.00,CLR,CLR,0.00,WeatherDisplay:10.37,2013-10-08 06:19:00,
2013-10-08 02:24:00,58.3,58.3,0.00,WNW,291,4.6,4.6,100,0.00,CLR,CLR,0.00,WeatherDisplay:10.37,2013-10-08 06:24:00,
2013-10-08 02:29:00,58.2,58.2,0.00,SW,236,5.8,5.8,100,0.00,CLR,CLR,0.00,WeatherDisplay:10.37,2013-10-08 06:29:00,
2013-10-08 02:34:00,58.2,58.2,0.00,WSW,247,3.5,3.5,100,0.00,CLR,CLR,0.00,WeatherDisplay:10.37,2013-10-08 06:34:00,
2013-10-08 02:39:00,58.0,58.0,0.00,West,260,4.6,4.6,100,0.00,CLR,CLR,0.00,WeatherDisplay:10.37,2013-10-08 06:39:00,
2013-10-08 02:44:00,58.0,58.0,0.00,WSW,241,2.4,2.4,100,0.00,CLR,CLR,0.00,WeatherDisplay:10.37,2013-10-08 06:44:00,
2013-10-08 02:49:00,57.9,57.9,0.00,WSW,251,2.6,2.6,100,0.00,CLR,CLR,0.00,WeatherDisplay:10.37,2013-10-08 06:49:00,
2013-10-08 02:54:00,57.9,57.9,0.00,WSW,239,0.0,0.0,100,0.00,CLR,CLR,0.00,WeatherDisplay:10.37,2013-10-08 06:54:00,
2013-10-08 02:59:00,57.8,57.8,0.00,SSW,205,1.2,1.2,100,0.00,CLR,CLR,0.00,WeatherDisplay:10.37,2013-10-08 06:59:00,
2013-10-08 03:04:00,57.8,57.8,0.00,South,191,3.5,3.5,100,0.00,CLR,CLR,0.00,WeatherDisplay:10.37,2013-10-08 07:04:00,
2013-10-08 03:10:00,57.7,57.7,0.00,WSW,250,3.5,3.5,100,0.00,CLR,CLR,0.00,WeatherDisplay:10.37,2013-10-08 07:10:00,
2013-10-08 03:15:00,57.5,57.5,0.00,WSW,237,5.8,5.8,100,0.00,CLR,CLR,0.00,WeatherDisplay:10.37,2013-10-08 07:15:00,
2013-10-08 03:20:00,57.3,57.3,0.00,West,265,3.5,3.5,100,0.00,CLR,CLR,0.00,WeatherDisplay:10.37,2013-10-08 07:20:00,
2013-10-08 03:25:00,57.2,57.2,0.00,WSW,258,5.8,5.8,100,0.00,CLR,CLR,0.00,WeatherDisplay:10.37,2013-10-08 07:25:00,
2013-10-08 03:30:00,57.1,57.1,0.00,SW,233,5.8,5.8,100,0.00,CLR,CLR,0.00,WeatherDisplay:10.37,2013-10-08 07:30:00,
2013-10-08 03:35:00,57.0,57.0,0.00,West,271,5.8,5.8,100,0.00,CLR,CLR,0.00,WeatherDisplay:10.37,2013-10-08 07:35:00,
2013-10-08 03:40:00,56.9,56.9,0.00,NW,323,3.5,3.5,100,0.00,CLR,CLR,0.00,WeatherDisplay:10.37,2013-10-08 07:40:00,
2013-10-08 03:45:00,56.8,56.8,0.00,WSW,246,7.0,7.0,100,0.00,CLR,CLR,0.00,WeatherDisplay:10.37,2013-10-08 07:45:00,
2013-10-08 03:50:00,56.8,56.8,0.00,West,278,6.9,6.9,100,0.00,CLR,CLR,0.00,WeatherDisplay:10.37,2013-10-08 07:50:00,
2013-10-08 03:55:00,56.7,56.7,0.00,WSW,256,2.3,2.3,100,0.00,CLR,CLR,0.00,WeatherDisplay:10.37,2013-10-08 07:55:00,
2013-10-08 04:00:00,56.6,56.6,0.00,WSW,247,3.2,3.2,100,0.00,CLR,CLR,0.00,WeatherDisplay:10.37,2013-10-08 08:00:00,
2013-10-08 04:05:00,56.6,56.6,0.00,WSW,253,6.9,6.9,100,0.00,CLR,CLR,0.00,WeatherDisplay:10.37,2013-10-08 08:05:00,
2013-10-08 04:10:00,56.4,56.4,0.00,WSW,251,5.8,5.8,100,0.00,CLR,CLR,0.00,WeatherDisplay:10.37,2013-10-08 08:10:00,
2013-10-08 04:15:00,56.3,56.3,0.00,WSW,240,5.8,5.8,100,0.00,CLR,CLR,0.00,WeatherDisplay:10.37,2013-10-08 08:15:00,
2013-10-08 04:20:00,56.0,56.0,0.00,WSW,257,6.9,6.9,100,0.00,CLR,CLR,0.00,WeatherDisplay:10.37,2013-10-08 08:20:00,
2013-10-08 04:25:00,55.9,55.9,0.00,WSW,251,9.2,9.2,100,0.00,CLR,CLR,0.00,WeatherDisplay:10.37,2013-10-08 08:25:00,
2013-10-08 04:30:00,55.7,55.7,0.00,SW,232,9.2,9.2,100,0.00,CLR,CLR,0.00,WeatherDisplay:10.37,2013-10-08 08:30:00,
2013-10-08 04:35:00,55.6,55.3,0.00,West,264,6.9,6.9,99,0.00,CLR,CLR,0.00,WeatherDisplay:10.37,2013-10-08 08:35:00,
2013-10-08 04:40:00,55.5,55.2,0.00,WSW,250,8.1,8.1,99,0.00,CLR,CLR,0.00,WeatherDisplay:10.37,2013-10-08 08:40:00,
2013-10-08 04:45:00,55.5,55.2,0.00,WSW,244,5.7,5.7,99,0.00,CLR,CLR,0.00,WeatherDisplay:10.37,2013-10-08 08:45:00,
2013-10-08 04:50:00,55.4,55.1,0.00,WSW,243,3.5,3.5,99,0.00,CLR,CLR,0.00,WeatherDisplay:10.37,2013-10-08 08:50:00,
2013-10-08 04:55:00,55.4,55.1,0.00,WSW,247,3.5,3.5,99,0.00,CLR,CLR,0.00,WeatherDisplay:10.37,2013-10-08 08:55:00,
2013-10-08 05:00:00,55.3,55.3,0.00,WSW,246,2.7,2.7,100,0.00,CLR,CLR,0.00,WeatherDisplay:10.37,2013-10-08 09:00:00,
2013-10-08 05:05:00,55.3,55.3,0.00,WSW,251,5.8,5.8,100,0.00,CLR,CLR,0.00,WeatherDisplay:10.37,2013-10-08 09:05:00,
2013-10-08 05:10:00,55.2,55.2,0.00,WSW,256,4.6,4.6,100,0.00,CLR,CLR,0.00,WeatherDisplay:10.37,2013-10-08 09:10:00,
2013-10-08 05:15:00,55.1,55.1,0.00,SW,229,4.6,4.6,100,0.00,CLR,CLR,0.00,WeatherDisplay:10.37,2013-10-08 09:15:00,
2013-10-08 05:20:00,55.0,55.0,0.00,West,265,4.6,4.6,100,0.00,CLR,CLR,0.00,WeatherDisplay:10.37,2013-10-08 09:20:00,
2013-10-08 05:25:00,54.9,54.9,0.00,West,267,4.6,4.6,100,0.00,CLR,CLR,0.00,WeatherDisplay:10.37,2013-10-08 09:25:00,
2013-10-08 05:30:00,54.8,54.8,0.00,SSW,202,2.3,2.3,100,0.00,CLR,CLR,0.00,WeatherDisplay:10.37,2013-10-08 09:30:00,
2013-10-08 05:35:00,54.8,54.8,0.00,WNW,296,2.3,2.3,100,0.00,CLR,CLR,0.00,WeatherDisplay:10.37,2013-10-08 09:35:00,
2013-10-08 05:40:00,54.7,54.7,0.00,West,278,2.3,2.3,100,0.00,CLR,CLR,0.00,WeatherDisplay:10.37,2013-10-08 09:40:00,
2013-10-08 05:45:00,54.6,54.6,0.00,WSW,256,2.3,2.3,100,0.00,CLR,CLR,0.00,WeatherDisplay:10.37,2013-10-08 09:45:00,
2013-10-08 05:50:00,54.5,54.5,0.00,WSW,244,1.2,0.0,100,0.00,CLR,CLR,0.00,WeatherDisplay:10.37,2013-10-08 09:50:00,
2013-10-08 05:55:00,54.5,54.5,0.00,WSW,244,2.3,2.3,100,0.00,CLR,CLR,0.00,WeatherDisplay:10.37,2013-10-08 09:55:00,
2013-10-08 06:00:00,54.4,54.4,0.00,West,264,2.3,2.3,100,0.00,CLR,CLR,0.00,WeatherDisplay:10.37,2013-10-08 10:00:00,
2013-10-08 06:05:00,54.4,54.4,0.00,WSW,251,4.6,4.6,100,0.00,CLR,CLR,0.00,WeatherDisplay:10.37,2013-10-08 10:05:00,
2013-10-08 06:10:00,54.2,54.2,0.00,WSW,237,4.6,4.6,100,0.00,CLR,CLR,0.00,WeatherDisplay:10.37,2013-10-08 10:10:00,
2013-10-08 06:15:00,54.1,54.1,0.00,WSW,239,3.5,3.5,100,0.00,CLR,CLR,0.00,WeatherDisplay:10.37,2013-10-08 10:15:00,
2013-10-08 06:20:00,54.0,54.0,0.00,SE,130,0.0,0.0,100,0.00,CLR,CLR,0.00,WeatherDisplay:10.37,2013-10-08 10:20:00,
2013-10-08 06:25:00,54.0,54.0,0.00,West,275,1.2,1.2,100,0.00,CLR,CLR,0.00,WeatherDisplay:10.37,2013-10-08 10:25:00,
2013-10-08 06:30:00,53.9,53.9,0.00,SW,226,2.3,2.3,100,0.00,CLR,CLR,0.00,WeatherDisplay:10.37,2013-10-08 10:30:00,
2013-10-08 06:35:00,53.8,53.8,0.00,SW,236,4.6,4.6,100,0.00,CLR,CLR,0.00,WeatherDisplay:10.37,2013-10-08 10:35:00,
2013-10-08 06:40:00,53.6,53.6,0.00,WSW,256,2.3,2.3,100,0.00,CLR,CLR,0.00,WeatherDisplay:10.37,2013-10-08 10:40:00,
2013-10-08 06:45:00,53.6,53.6,0.00,WSW,247,3.0,3.0,100,0.00,CLR,CLR,0.00,WeatherDisplay:10.37,2013-10-08 10:45:00,
2013-10-08 06:50:00,53.5,53.5,0.00,West,264,4.6,4.6,100,0.00,CLR,CLR,0.00,WeatherDisplay:10.37,2013-10-08 10:50:00,
2013-10-08 06:55:00,53.4,53.4,0.00,WSW,257,4.2,4.2,100,0.00,CLR,CLR,0.00,WeatherDisplay:10.37,2013-10-08 10:55:00,
2013-10-08 07:00:00,53.3,53.3,0.00,West,265,1.2,1.2,100,0.00,CLR,CLR,0.00,WeatherDisplay:10.37,2013-10-08 11:00:00,
2013-10-08 07:05:00,53.3,53.3,0.00,WSW,254,3.5,3.5,100,0.00,CLR,CLR,0.00,WeatherDisplay:10.37,2013-10-08 11:05:00,
2013-10-08 07:10:00,53.3,53.3,0.00,West,267,3.5,3.5,100,0.00,CLR,CLR,0.00,WeatherDisplay:10.37,2013-10-08 11:10:00,
2013-10-08 07:16:00,53.1,53.1,0.00,SSE,161,1.2,1.2,100,0.00,CLR,CLR,0.00,WeatherDisplay:10.37,2013-10-08 11:16:00,
2013-10-08 07:21:00,53.0,53.0,0.00,SW,232,3.5,3.5,100,0.00,CLR,CLR,0.00,WeatherDisplay:10.37,2013-10-08 11:21:00,
2013-10-08 07:26:00,53.0,53.0,0.00,West,270,2.3,2.3,100,0.00,CLR,CLR,0.00,WeatherDisplay:10.37,2013-10-08 11:26:00,
2013-10-08 07:31:00,52.9,52.9,0.00,WSW,239,5.8,5.8,100,0.00,CLR,CLR,0.00,WeatherDisplay:10.37,2013-10-08 11:31:00,
2013-10-08 07:36:00,52.9,52.9,0.00,WSW,251,6.9,6.9,100,0.00,CLR,CLR,0.00,WeatherDisplay:10.37,2013-10-08 11:36:00,
2013-10-08 07:41:00,52.8,52.8,0.00,WSW,240,3.9,3.9,100,0.00,CLR,CLR,0.00,WeatherDisplay:10.37,2013-10-08 11:41:00,
2013-10-08 07:46:00,52.8,52.8,0.00,SW,227,2.3,2.3,100,0.00,CLR,CLR,0.00,WeatherDisplay:10.37,2013-10-08 11:46:00,
2013-10-08 07:51:00,52.8,52.8,0.00,SW,230,1.2,1.2,100,0.00,CLR,CLR,0.00,WeatherDisplay:10.37,2013-10-08 11:51:00,
2013-10-08 07:56:00,52.9,52.9,0.00,WSW,239,3.7,3.7,100,0.00,CLR,CLR,0.00,WeatherDisplay:10.37,2013-10-08 11:56:00,
2013-10-08 08:01:00,52.9,52.9,0.00,West,270,1.2,1.2,100,0.00,CLR,CLR,0.00,WeatherDisplay:10.37,2013-10-08 12:01:00,
2013-10-08 08:06:00,52.8,52.8,0.00,WSW,246,4.6,4.6,100,0.00,CLR,CLR,0.00,WeatherDisplay:10.37,2013-10-08 12:06:00,
2013-10-08 08:11:00,52.7,52.7,0.00,WSW,239,3.5,3.5,100,0.00,CLR,CLR,0.00,WeatherDisplay:10.37,2013-10-08 12:11:00,
2013-10-08 08:16:00,52.7,52.7,0.00,WSW,241,0.0,0.0,100,0.00,CLR,CLR,0.00,WeatherDisplay:10.37,2013-10-08 12:16:00,
2013-10-08 08:21:00,52.7,52.7,0.00,WSW,241,0.0,0.0,100,0.00,CLR,CLR,0.00,WeatherDisplay:10.37,2013-10-08 12:21:00,
2013-10-08 08:26:00,52.8,52.8,0.00,WSW,241,2.4,2.4,100,0.00,CLR,CLR,0.00,WeatherDisplay:10.37,2013-10-08 12:26:00,
2013-10-08 08:31:00,52.8,52.8,0.00,SSW,212,3.5,3.5,100,0.00,CLR,CLR,0.00,WeatherDisplay:10.37,2013-10-08 12:31:00,
2013-10-08 08:36:00,52.9,52.9,0.00,SSW,200,2.3,2.3,100,0.00,CLR,CLR,0.00,WeatherDisplay:10.37,2013-10-08 12:36:00,
2013-10-08 08:41:00,52.9,52.9,0.00,WSW,250,4.6,4.6,100,0.00,CLR,CLR,0.00,WeatherDisplay:10.37,2013-10-08 12:41:00,
2013-10-08 08:46:00,53.1,53.1,0.00,SW,229,5.8,5.8,100,0.00,CLR,CLR,0.00,WeatherDisplay:10.37,2013-10-08 12:46:00,
2013-10-08 08:51:00,53.2,53.2,0.00,WNW,296,3.8,3.8,100,0.00,CLR,CLR,0.00,WeatherDisplay:10.37,2013-10-08 12:51:00,
2013-10-08 08:56:00,53.3,53.3,0.00,SW,236,7.0,7.0,100,0.00,CLR,CLR,0.00,WeatherDisplay:10.37,2013-10-08 12:56:00,
2013-10-08 09:01:00,53.4,53.1,0.00,West,280,5.8,5.8,99,0.00,CLR,CLR,0.00,WeatherDisplay:10.37,2013-10-08 13:01:00,
2013-10-08 09:06:00,53.5,53.2,0.00,NW,311,4.6,4.6,99,0.00,CLR,CLR,0.00,WeatherDisplay:10.37,2013-10-08 13:06:00,
2013-10-08 09:11:00,53.5,53.2,0.00,WSW,239,4.6,4.6,99,0.00,CLR,CLR,0.00,WeatherDisplay:10.37,2013-10-08 13:11:00,
2013-10-08 09:16:00,53.7,53.4,0.00,WNW,302,6.9,6.9,99,0.00,CLR,CLR,0.00,WeatherDisplay:10.37,2013-10-08 13:16:00,
2013-10-08 09:21:00,53.8,53.2,0.00,WSW,257,6.9,6.9,98,0.00,CLR,CLR,0.00,WeatherDisplay:10.37,2013-10-08 13:21:00,
2013-10-08 09:26:00,54.0,53.4,0.00,West,281,6.9,6.9,98,0.00,CLR,CLR,0.00,WeatherDisplay:10.37,2013-10-08 13:26:00,
2013-10-08 09:31:00,54.1,53.5,0.00,WSW,257,5.8,5.8,98,0.00,CLR,CLR,0.00,WeatherDisplay:10.37,2013-10-08 13:31:00,
2013-10-08 09:36:00,54.3,53.2,0.00,West,271,11.5,11.5,96,0.00,CLR,CLR,0.00,WeatherDisplay:10.37,2013-10-08 13:36:00,
2013-10-08 09:41:00,54.5,53.4,0.00,WSW,258,10.4,10.4,96,0.00,CLR,CLR,0.00,WeatherDisplay:10.37,2013-10-08 13:41:00,
2013-10-08 09:46:00,54.6,53.5,0.00,NW,322,6.9,6.9,96,0.00,CLR,CLR,0.00,WeatherDisplay:10.37,2013-10-08 13:46:00,
2013-10-08 09:51:00,54.7,53.3,0.00,WNW,285,8.1,8.1,95,0.00,CLR,CLR,0.00,WeatherDisplay:10.37,2013-10-08 13:51:00,
2013-10-08 09:56:00,54.7,53.0,0.00,West,261,8.1,8.1,94,0.00,CLR,CLR,0.00,WeatherDisplay:10.37,2013-10-08 13:56:00,
2013-10-08 10:01:00,54.7,52.7,0.00,NNW,346,9.2,9.2,93,0.00,CLR,CLR,0.00,WeatherDisplay:10.37,2013-10-08 14:01:00,
2013-10-08 10:06:00,54.8,53.1,0.00,West,268,7.1,7.1,94,0.00,CLR,CLR,0.00,WeatherDisplay:10.37,2013-10-08 14:06:00,
2013-10-08 10:11:00,54.9,52.6,0.00,WSW,243,12.7,12.7,92,0.00,CLR,CLR,0.00,WeatherDisplay:10.37,2013-10-08 14:11:00,
2013-10-08 10:16:00,55.0,52.4,0.00,WNW,296,9.2,9.2,91,0.00,CLR,CLR,0.00,WeatherDisplay:10.37,2013-10-08 14:16:00,
2013-10-08 10:21:00,55.1,52.5,0.00,NW,305,6.9,6.9,91,0.00,CLR,CLR,0.00,WeatherDisplay:10.37,2013-10-08 14:21:00,
2013-10-08 10:27:00,55.2,52.6,0.00,West,277,9.2,9.2,91,0.00,CLR,CLR,0.00,WeatherDisplay:10.37,2013-10-08 14:27:00,
2013-10-08 10:32:00,55.3,52.4,0.00,West,261,7.5,7.5,90,0.00,CLR,CLR,0.00,WeatherDisplay:10.37,2013-10-08 14:32:00,
2013-10-08 10:37:00,55.5,52.3,0.00,WNW,294,5.8,5.8,89,0.00,CLR,CLR,0.00,WeatherDisplay:10.37,2013-10-08 14:37:00,
2013-10-08 10:42:00,55.5,52.3,0.00,NNW,330,6.9,6.9,89,0.00,CLR,CLR,0.00,WeatherDisplay:10.37,2013-10-08 14:42:00,
2013-10-08 10:47:00,55.6,52.1,0.00,North,357,9.2,9.2,88,0.00,CLR,CLR,0.00,WeatherDisplay:10.37,2013-10-08 14:47:00,
2013-10-08 10:52:00,55.6,52.4,0.00,WNW,292,6.9,6.9,89,0.01,RA,RA,0.01,WeatherDisplay:10.37,2013-10-08 14:52:00,
2013-10-08 10:57:00,55.7,52.2,0.00,WSW,257,8.1,8.1,88,0.03,RA,RA,0.03,WeatherDisplay:10.37,2013-10-08 14:57:00,
2013-10-08 11:02:00,55.9,52.4,0.00,WNW,296,6.9,6.9,88,0.03,RA,RA,0.03,WeatherDisplay:10.37,2013-10-08 15:02:00,
2013-10-08 11:07:00,56.0,52.5,0.00,West,268,6.9,6.9,88,0.03,CLR,CLR,0.03,WeatherDisplay:10.37,2013-10-08 15:07:00,
2013-10-08 11:12:00,56.0,52.5,0.00,West,270,6.9,6.9,88,0.03,CLR,CLR,0.03,WeatherDisplay:10.37,2013-10-08 15:12:00,
2013-10-08 11:17:00,56.1,52.3,0.00,WNW,294,8.1,8.1,87,0.03,CLR,CLR,0.03,WeatherDisplay:10.37,2013-10-08 15:17:00,
2013-10-08 11:22:00,56.1,52.3,0.00,WNW,301,6.9,6.9,87,0.03,CLR,CLR,0.03,WeatherDisplay:10.37,2013-10-08 15:22:00,
2013-10-08 11:27:00,56.2,52.7,0.00,NNW,344,4.6,4.6,88,0.03,CLR,CLR,0.03,WeatherDisplay:10.37,2013-10-08 15:27:00,
2013-10-08 11:32:00,56.2,53.0,0.00,NW,326,4.6,4.6,89,0.03,CLR,CLR,0.03,WeatherDisplay:10.37,2013-10-08 15:32:00,
2013-10-08 11:37:00,56.3,52.8,0.00,NNW,337,8.1,8.1,88,0.03,CLR,CLR,0.03,WeatherDisplay:10.37,2013-10-08 15:37:00,
2013-10-08 11:42:00,56.3,53.1,0.00,NW,306,5.8,5.8,89,0.03,CLR,CLR,0.03,WeatherDisplay:10.37,2013-10-08 15:42:00,
2013-10-08 11:47:00,56.4,52.6,0.00,NW,308,8.1,8.1,87,0.03,CLR,CLR,0.03,WeatherDisplay:10.37,2013-10-08 15:47:00,
2013-10-08 11:52:00,56.6,52.5,0.00,North,360,8.1,8.1,86,0.02,CLR,CLR,0.03,WeatherDisplay:10.37,2013-10-08 15:52:00,
2013-10-08 11:57:00,56.6,52.5,0.00,NNW,346,8.1,8.1,86,0.00,CLR,CLR,0.03,WeatherDisplay:10.37,2013-10-08 15:57:00,
2013-10-08 12:02:00,56.7,52.9,0.00,NW,308,8.1,8.1,87,0.00,CLR,CLR,0.03,WeatherDisplay:10.37,2013-10-08 16:02:00,
2013-10-08 12:07:00,56.9,52.4,0.00,WNW,298,8.1,8.1,85,0.00,CLR,CLR,0.03,WeatherDisplay:10.37,2013-10-08 16:07:00,
2013-10-08 12:12:00,57.0,52.5,0.00,WNW,302,9.2,9.2,85,0.00,CLR,CLR,0.03,WeatherDisplay:10.37,2013-10-08 16:12:00,
2013-10-08 12:17:00,57.1,52.6,0.00,NW,305,6.9,6.9,85,0.00,CLR,CLR,0.03,WeatherDisplay:10.37,2013-10-08 16:17:00,
2013-10-08 12:22:00,57.2,52.4,0.00,NNW,329,5.8,5.8,84,0.00,CLR,CLR,0.03,WeatherDisplay:10.37,2013-10-08 16:22:00,
2013-10-08 12:27:00,57.4,52.6,0.00,West,271,9.5,9.5,84,0.00,CLR,CLR,0.03,WeatherDisplay:10.37,2013-10-08 16:27:00,
2013-10-08 12:32:00,57.4,52.3,0.00,NW,309,6.9,6.9,83,0.00,CLR,CLR,0.03,WeatherDisplay:10.37,2013-10-08 16:32:00,
2013-10-08 12:37:00,57.6,52.5,0.00,WNW,295,6.9,6.9,83,0.00,CLR,CLR,0.03,WeatherDisplay:10.37,2013-10-08 16:37:00,
2013-10-08 12:42:00,57.6,52.5,0.00,NW,318,11.5,11.5,83,0.00,CLR,CLR,0.03,WeatherDisplay:10.37,2013-10-08 16:42:00,
2013-10-08 12:47:00,57.7,51.6,0.00,West,265,10.4,10.4,80,0.00,CLR,CLR,0.03,WeatherDisplay:10.37,2013-10-08 16:47:00,
2013-10-08 12:52:00,57.8,52.3,0.00,NNW,336,5.8,5.8,82,0.00,CLR,CLR,0.03,WeatherDisplay:10.37,2013-10-08 16:52:00,
2013-10-08 12:57:00,57.9,52.4,0.00,NNW,328,8.1,8.1,82,0.00,CLR,CLR,0.03,WeatherDisplay:10.37,2013-10-08 16:57:00,
2013-10-08 13:02:00,57.9,52.4,0.00,West,275,10.4,10.4,82,0.00,CLR,CLR,0.03,WeatherDisplay:10.37,2013-10-08 17:02:00,
2013-10-08 13:07:00,58.0,52.5,0.00,WNW,285,4.6,4.6,82,0.00,CLR,CLR,0.03,WeatherDisplay:10.37,2013-10-08 17:07:00,
2013-10-08 13:12:00,58.1,52.0,0.00,WNW,289,9.2,9.2,80,0.00,CLR,CLR,0.03,WeatherDisplay:10.37,2013-10-08 17:12:00,
2013-10-08 13:17:00,58.2,52.1,0.00,West,274,9.2,9.2,80,0.00,CLR,CLR,0.03,WeatherDisplay:10.37,2013-10-08 17:17:00,
2013-10-08 13:22:00,58.3,52.2,0.00,NW,304,8.1,8.1,80,0.00,CLR,CLR,0.03,WeatherDisplay:10.37,2013-10-08 17:22:00,
2013-10-08 13:27:00,58.4,52.3,0.00,WNW,295,5.8,5.8,80,0.00,CLR,CLR,0.03,WeatherDisplay:10.37,2013-10-08 17:27:00,
2013-10-08 13:32:00,58.4,52.3,0.00,WNW,298,6.9,6.9,80,0.00,CLR,CLR,0.03,WeatherDisplay:10.37,2013-10-08 17:32:00,
2013-10-08 13:37:00,58.6,52.4,0.00,NW,313,9.2,9.2,80,0.00,CLR,CLR,0.03,WeatherDisplay:10.37,2013-10-08 17:37:00,
2013-10-08 13:42:00,58.7,52.9,0.00,WNW,288,5.8,5.8,81,0.00,CLR,CLR,0.03,WeatherDisplay:10.37,2013-10-08 17:42:00,
2013-10-08 13:47:00,58.8,52.6,0.00,WSW,241,8.1,8.1,80,0.00,CLR,CLR,0.03,WeatherDisplay:10.37,2013-10-08 17:47:00,
2013-10-08 13:52:00,58.9,52.7,0.00,WSW,250,5.8,5.8,80,0.00,CLR,CLR,0.03,WeatherDisplay:10.37,2013-10-08 17:52:00,
2013-10-08 13:57:00,59.0,52.5,0.00,NW,325,5.0,5.0,79,0.00,CLR,CLR,0.03,WeatherDisplay:10.37,2013-10-08 17:57:00,
2013-10-08 14:02:00,59.0,52.5,0.00,NW,319,6.9,6.9,79,0.00,CLR,CLR,0.03,WeatherDisplay:10.37,2013-10-08 18:02:00,
2013-10-08 14:08:00,59.2,52.7,0.00,WNW,298,9.2,9.2,79,0.00,CLR,CLR,0.03,WeatherDisplay:10.37,2013-10-08 18:08:00,
2013-10-08 14:13:00,59.3,52.8,0.00,WSW,241,4.7,4.7,79,0.00,CLR,CLR,0.03,WeatherDisplay:10.37,2013-10-08 18:13:00,
2013-10-08 14:18:00,59.3,52.8,0.00,NW,318,5.8,5.8,79,0.00,CLR,CLR,0.03,WeatherDisplay:10.37,2013-10-08 18:18:00,
2013-10-08 14:23:00,59.3,52.8,0.00,NNW,344,6.9,6.9,79,0.00,CLR,CLR,0.03,WeatherDisplay:10.37,2013-10-08 18:23:00,
2013-10-08 14:28:00,59.4,52.5,0.00,West,261,6.2,6.2,78,0.00,CLR,CLR,0.03,WeatherDisplay:10.37,2013-10-08 18:28:00,
2013-10-08 14:33:00,59.4,52.9,0.00,NNE,16,5.9,5.9,79,0.00,CLR,CLR,0.03,WeatherDisplay:10.37,2013-10-08 18:33:00,
2013-10-08 14:38:00,59.5,53.3,0.00,NNW,344,4.6,4.6,80,0.00,CLR,CLR,0.03,WeatherDisplay:10.37,2013-10-08 18:38:00,
2013-10-08 14:43:00,59.5,53.0,0.00,North,357,4.5,4.5,79,0.00,CLR,CLR,0.03,WeatherDisplay:10.37,2013-10-08 18:43:00,
2013-10-08 14:48:00,59.4,52.5,0.00,WNW,284,9.2,9.2,78,0.00,CLR,CLR,0.03,WeatherDisplay:10.37,2013-10-08 18:48:00,
2013-10-08 14:53:00,59.5,52.3,0.00,WNW,287,6.9,6.9,77,0.00,CLR,CLR,0.03,WeatherDisplay:10.37,2013-10-08 18:53:00,
2013-10-08 14:58:00,59.6,52.4,0.00,NW,320,6.9,6.9,77,0.00,CLR,CLR,0.03,WeatherDisplay:10.37,2013-10-08 18:58:00,
2013-10-08 15:03:00,59.8,52.6,0.00,NNE,20,9.2,9.2,77,0.00,CLR,CLR,0.03,WeatherDisplay:10.37,2013-10-08 19:03:00,
2013-10-08 15:08:00,59.9,52.0,0.00,West,270,6.6,6.6,75,0.00,CLR,CLR,0.03,WeatherDisplay:10.37,2013-10-08 19:08:00,
2013-10-08 15:13:00,60.0,51.7,0.00,NNW,344,8.1,8.1,74,0.00,CLR,CLR,0.03,WeatherDisplay:10.37,2013-10-08 19:13:00,
2013-10-08 15:18:00,60.1,51.8,0.00,WNW,287,6.9,6.9,74,0.00,CLR,CLR,0.03,WeatherDisplay:10.37,2013-10-08 19:18:00,
2013-10-08 15:23:00,60.2,51.9,0.00,West,271,6.7,6.7,74,0.00,CLR,CLR,0.03,WeatherDisplay:10.37,2013-10-08 19:23:00,
2013-10-08 15:28:00,60.3,52.3,0.00,North,0,1.3,1.3,75,0.00,CLR,CLR,0.03,WeatherDisplay:10.37,2013-10-08 19:28:00,
2013-10-08 15:33:00,60.3,52.3,0.00,NNW,339,5.8,5.8,75,0.00,CLR,CLR,0.03,WeatherDisplay:10.37,2013-10-08 19:33:00,
2013-10-08 15:38:00,60.3,52.0,0.00,West,267,9.2,9.2,74,0.00,CLR,CLR,0.03,WeatherDisplay:10.37,2013-10-08 19:38:00,
2013-10-08 15:43:00,60.4,52.1,0.00,NNW,335,6.9,6.9,74,0.00,CLR,CLR,0.03,WeatherDisplay:10.37,2013-10-08 19:43:00,
2013-10-08 15:48:00,60.5,52.5,0.00,North,352,2.3,2.3,75,0.00,CLR,CLR,0.03,WeatherDisplay:10.37,2013-10-08 19:48:00,
2013-10-08 15:53:00,60.5,52.9,0.00,North,360,4.0,4.0,76,0.00,CLR,CLR,0.03,WeatherDisplay:10.37,2013-10-08 19:53:00,
2013-10-08 15:58:00,60.5,52.2,0.00,West,281,3.5,4.8,74,0.00,CLR,CLR,0.03,WeatherDisplay:10.37,2013-10-08 19:58:00,
2013-10-08 16:03:00,60.6,51.9,0.00,WNW,295,6.9,6.9,73,0.00,CLR,CLR,0.03,WeatherDisplay:10.37,2013-10-08 20:03:00,
2013-10-08 16:08:00,60.8,52.1,0.00,WNW,302,5.8,5.8,73,0.00,CLR,CLR,0.03,WeatherDisplay:10.37,2013-10-08 20:08:00,
2013-10-08 16:13:00,60.8,51.7,0.00,SW,229,6.9,6.9,72,0.00,CLR,CLR,0.03,WeatherDisplay:10.37,2013-10-08 20:13:00,
2013-10-08 16:18:00,61.3,52.6,0.00,WNW,292,4.6,4.6,73,0.00,CLR,CLR,0.03,WeatherDisplay:10.37,2013-10-08 20:18:00,
2013-10-08 16:23:00,61.1,52.7,0.00,WNW,289,4.6,4.6,74,0.00,CLR,CLR,0.03,WeatherDisplay:10.37,2013-10-08 20:23:00,
2013-10-08 16:28:00,61.1,52.7,0.00,North,353,8.1,8.1,74,0.00,CLR,CLR,0.03,WeatherDisplay:10.37,2013-10-08 20:28:00,
2013-10-08 16:34:00,61.1,53.1,0.00,NNW,344,2.4,2.4,75,0.00,CLR,CLR,0.03,WeatherDisplay:10.37,2013-10-08 20:34:00,
2013-10-08 16:39:00,61.1,53.1,0.00,NW,304,4.6,4.6,75,0.00,CLR,CLR,0.03,WeatherDisplay:10.37,2013-10-08 20:39:00,
2013-10-08 16:44:00,61.1,53.1,0.00,North,359,4.6,4.6,75,0.00,CLR,CLR,0.03,WeatherDisplay:10.37,2013-10-08 20:44:00,
2013-10-08 16:49:00,61.1,53.1,0.00,West,278,3.9,3.9,75,0.00,CLR,CLR,0.03,WeatherDisplay:10.37,2013-10-08 20:49:00,
2013-10-08 16:54:00,61.1,53.1,0.00,NNW,332,3.5,3.5,75,0.00,CLR,CLR,0.03,WeatherDisplay:10.37,2013-10-08 20:54:00,
2013-10-08 16:59:00,61.2,53.2,0.00,NW,305,2.3,2.3,75,0.00,CLR,CLR,0.03,WeatherDisplay:10.37,2013-10-08 20:59:00,
2013-10-08 17:04:00,61.3,53.3,0.00,NNW,340,3.5,3.5,75,0.00,CLR,CLR,0.03,WeatherDisplay:10.37,2013-10-08 21:04:00,
2013-10-08 17:09:00,61.2,53.2,0.00,WSW,257,1.2,1.2,75,0.00,CLR,CLR,0.03,WeatherDisplay:10.37,2013-10-08 21:09:00,
2013-10-08 17:14:00,61.2,53.6,0.00,WSW,257,0.6,0.0,76,0.00,CLR,CLR,0.03,WeatherDisplay:10.37,2013-10-08 21:14:00,
2013-10-08 17:19:00,61.2,53.6,0.00,NW,320,0.0,0.0,76,0.00,CLR,CLR,0.03,WeatherDisplay:10.37,2013-10-08 21:19:00,
2013-10-08 17:24:00,61.1,53.5,0.00,WNW,298,2.3,2.3,76,0.00,CLR,CLR,0.03,WeatherDisplay:10.37,2013-10-08 21:24:00,
2013-10-08 17:29:00,61.1,53.5,0.00,NW,305,0.0,0.0,76,0.00,CLR,CLR,0.03,WeatherDisplay:10.37,2013-10-08 21:29:00,
2013-10-08 17:34:00,61.0,53.7,0.00,NNW,328,1.6,1.6,77,0.00,CLR,CLR,0.03,WeatherDisplay:10.37,2013-10-08 21:34:00,
2013-10-08 17:39:00,61.0,54.4,0.00,NNW,337,0.0,0.0,79,0.00,CLR,CLR,0.03,WeatherDisplay:10.37,2013-10-08 21:39:00,
2013-10-08 17:44:00,60.9,54.3,0.00,NNW,337,0.0,0.0,79,0.00,CLR,CLR,0.03,WeatherDisplay:10.37,2013-10-08 21:44:00,
2013-10-08 17:49:00,60.8,54.6,0.00,NNW,337,0.0,0.0,80,0.00,CLR,CLR,0.03,WeatherDisplay:10.37,2013-10-08 21:49:00,
2013-10-08 17:54:00,60.7,54.5,0.00,WNW,295,3.5,3.5,80,0.00,CLR,CLR,0.03,WeatherDisplay:10.37,2013-10-08 21:54:00,
2013-10-08 17:59:00,60.6,54.4,0.00,NW,318,2.3,2.3,80,0.00,CLR,CLR,0.03,WeatherDisplay:10.37,2013-10-08 21:59:00,
2013-10-08 18:04:00,60.5,54.3,0.00,North,356,0.0,0.0,80,0.00,CLR,CLR,0.03,WeatherDisplay:10.37,2013-10-08 22:04:00,
2013-10-08 18:09:00,60.4,54.5,0.00,North,356,0.0,0.0,81,0.00,CLR,CLR,0.03,WeatherDisplay:10.37,2013-10-08 22:09:00,
2013-10-08 18:14:00,60.4,54.5,0.00,WNW,291,2.3,2.3,81,0.00,CLR,CLR,0.03,WeatherDisplay:10.37,2013-10-08 22:14:00,
2013-10-08 18:19:00,60.3,54.8,0.00,WNW,302,2.3,2.3,82,0.00,CLR,CLR,0.03,WeatherDisplay:10.37,2013-10-08 22:19:00,
2013-10-08 18:24:00,60.2,54.7,0.00,NW,304,0.0,0.0,82,0.00,CLR,CLR,0.03,WeatherDisplay:10.37,2013-10-08 22:24:00,
2013-10-08 18:29:00,60.0,54.5,0.00,NNW,336,4.6,4.6,82,0.00,CLR,CLR,0.03,WeatherDisplay:10.37,2013-10-08 22:29:00,
2013-10-08 18:34:00,59.8,54.3,0.00,West,265,0.0,0.0,82,0.00,CLR,CLR,0.03,WeatherDisplay:10.37,2013-10-08 22:34:00,
2013-10-08 18:39:00,59.7,54.2,0.00,NNW,335,2.3,2.3,82,0.00,CLR,CLR,0.03,WeatherDisplay:10.37,2013-10-08 22:39:00,
2013-10-08 18:44:00,59.6,54.1,0.00,NW,321,0.0,0.0,82,0.00,CLR,CLR,0.03,WeatherDisplay:10.37,2013-10-08 22:44:00,
2013-10-08 18:49:00,59.4,53.9,0.00,WNW,282,1.2,1.2,82,0.00,CLR,CLR,0.03,WeatherDisplay:10.37,2013-10-08 22:49:00,
2013-10-08 18:54:00,59.4,53.9,0.00,West,271,3.5,3.5,82,0.00,CLR,CLR,0.03,WeatherDisplay:10.37,2013-10-08 22:54:00,
2013-10-08 18:59:00,59.3,53.8,0.00,North,360,1.2,1.2,82,0.00,CLR,CLR,0.03,WeatherDisplay:10.37,2013-10-08 22:59:00,
2013-10-08 19:04:00,59.2,54.0,0.00,North,358,0.0,0.0,83,0.00,CLR,CLR,0.03,WeatherDisplay:10.37,2013-10-08 23:04:00,
2013-10-08 19:09:00,59.0,53.8,0.00,North,350,0.0,0.0,83,0.00,CLR,CLR,0.03,WeatherDisplay:10.37,2013-10-08 23:09:00,
2013-10-08 19:14:00,58.9,53.7,0.00,North,8,0.0,0.0,83,0.00,CLR,CLR,0.03,WeatherDisplay:10.37,2013-10-08 23:14:00,
2013-10-08 19:19:00,58.8,53.6,0.00,North,8,0.0,0.0,83,0.00,CLR,CLR,0.03,WeatherDisplay:10.37,2013-10-08 23:19:00,
2013-10-08 19:24:00,58.7,53.9,0.00,NNE,16,2.3,2.3,84,0.00,CLR,CLR,0.03,WeatherDisplay:10.37,2013-10-08 23:24:00,
2013-10-08 19:29:00,58.6,53.8,0.00,NNW,328,1.2,0.0,84,0.00,CLR,CLR,0.03,WeatherDisplay:10.37,2013-10-08 23:29:00,
2013-10-08 19:34:00,58.4,53.6,0.00,NNW,329,0.0,0.0,84,0.00,CLR,CLR,0.03,WeatherDisplay:10.37,2013-10-08 23:34:00,
2013-10-08 19:39:00,58.3,53.5,0.00,NNW,329,0.0,0.0,84,0.00,CLR,CLR,0.03,WeatherDisplay:10.37,2013-10-08 23:39:00,
2013-10-08 19:44:00,58.3,53.8,0.00,WNW,292,1.2,0.0,85,0.00,CLR,CLR,0.03,WeatherDisplay:10.37,2013-10-08 23:44:00,
2013-10-08 19:49:00,58.2,53.7,0.00,NNE,25,2.3,2.3,85,0.00,CLR,CLR,0.03,WeatherDisplay:10.37,2013-10-08 23:49:00,
2013-10-08 19:54:00,58.2,53.7,0.00,North,360,0.0,0.0,85,0.00,CLR,CLR,0.03,WeatherDisplay:10.37,2013-10-08 23:54:00,
2013-10-08 19:59:00,58.1,53.6,0.00,North,360,0.0,0.0,85,0.00,CLR,CLR,0.03,WeatherDisplay:10.37,2013-10-08 23:59:00,
2013-10-08 20:04:00,58.1,53.9,0.00,North,6,1.2,1.2,86,0.00,CLR,CLR,0.03,WeatherDisplay:10.37,2013-10-09 00:04:00,
2013-10-08 20:09:00,58.0,53.8,0.00,NNE,23,0.0,0.0,86,0.00,CLR,CLR,0.03,WeatherDisplay:10.37,2013-10-09 00:09:00,
2013-10-08 20:14:00,57.9,53.7,0.00,NW,312,0.0,0.0,86,0.00,CLR,CLR,0.03,WeatherDisplay:10.37,2013-10-09 00:14:00,
2013-10-08 20:19:00,57.8,53.6,0.00,NW,312,0.0,0.0,86,0.00,CLR,CLR,0.03,WeatherDisplay:10.37,2013-10-09 00:19:00,
2013-10-08 20:24:00,57.8,53.6,0.00,NW,312,0.0,0.0,86,0.00,CLR,CLR,0.03,WeatherDisplay:10.37,2013-10-09 00:24:00,
2013-10-08 20:30:00,57.7,53.9,0.00,NW,312,0.0,0.0,87,0.00,CLR,CLR,0.03,WeatherDisplay:10.37,2013-10-09 00:30:00,
2013-10-08 20:35:00,57.6,53.8,0.00,NNW,333,0.0,0.0,87,0.00,CLR,CLR,0.03,WeatherDisplay:10.37,2013-10-09 00:35:00,
2013-10-08 20:40:00,57.5,53.7,0.00,NNW,333,0.0,0.0,87,0.00,CLR,CLR,0.03,WeatherDisplay:10.37,2013-10-09 00:40:00,
2013-10-08 20:45:00,57.4,53.6,0.00,NNW,333,0.0,0.0,87,0.00,CLR,CLR,0.03,WeatherDisplay:10.37,2013-10-09 00:45:00,
2013-10-08 20:50:00,57.3,53.1,0.00,NNW,333,0.0,0.0,86,0.00,CLR,CLR,0.03,WeatherDisplay:10.37,2013-10-09 00:50:00,
2013-10-08 20:55:00,57.2,53.0,0.00,NNE,17,3.5,3.5,86,0.00,CLR,CLR,0.03,WeatherDisplay:10.37,2013-10-09 00:55:00,
2013-10-08 21:00:00,57.0,53.2,0.00,North,356,2.3,2.3,87,0.00,CLR,CLR,0.03,WeatherDisplay:10.37,2013-10-09 01:00:00,
2013-10-08 21:05:00,56.9,53.1,0.00,NNW,342,0.0,0.0,87,0.00,CLR,CLR,0.03,WeatherDisplay:10.37,2013-10-09 01:05:00,
2013-10-08 21:10:00,56.8,53.0,0.00,NNE,23,0.4,0.0,87,0.00,CLR,CLR,0.03,WeatherDisplay:10.37,2013-10-09 01:10:00,
2013-10-08 21:15:00,56.7,52.6,0.00,NNW,328,1.2,1.2,86,0.00,CLR,CLR,0.03,WeatherDisplay:10.37,2013-10-09 01:15:00,
2013-10-08 21:20:00,56.6,52.5,0.00,NNE,21,1.4,1.4,86,0.00,CLR,CLR,0.03,WeatherDisplay:10.37,2013-10-09 01:20:00,
2013-10-08 21:25:00,56.5,52.4,0.00,North,11,2.3,2.3,86,0.00,CLR,CLR,0.03,WeatherDisplay:10.37,2013-10-09 01:25:00,
2013-10-08 21:30:00,56.3,52.2,0.00,NNE,20,1.6,1.6,86,0.00,CLR,CLR,0.03,WeatherDisplay:10.37,2013-10-09 01:30:00,
2013-10-08 21:35:00,56.3,52.2,0.00,NNE,14,1.2,1.2,86,0.00,CLR,CLR,0.03,WeatherDisplay:10.37,2013-10-09 01:35:00,
2013-10-08 21:40:00,56.2,52.1,0.00,NNE,13,0.0,0.0,86,0.00,CLR,CLR,0.03,WeatherDisplay:10.37,2013-10-09 01:40:00,
2013-10-08 21:45:00,56.2,52.4,0.00,NNE,32,2.3,2.3,87,0.00,CLR,CLR,0.03,WeatherDisplay:10.37,2013-10-09 01:45:00,
2013-10-08 21:50:00,56.1,52.0,0.00,NNE,16,2.3,2.3,86,0.00,CLR,CLR,0.03,WeatherDisplay:10.37,2013-10-09 01:50:00,
2013-10-08 21:55:00,56.0,51.9,0.00,NNE,13,1.2,1.2,86,0.00,CLR,CLR,0.03,WeatherDisplay:10.37,2013-10-09 01:55:00,
2013-10-08 22:00:00,55.9,51.8,0.00,WNW,302,1.2,0.0,86,0.00,CLR,CLR,0.03,WeatherDisplay:10.37,2013-10-09 02:00:00,
2013-10-08 22:05:00,55.8,51.7,0.00,NNW,333,2.3,2.3,86,0.00,CLR,CLR,0.03,WeatherDisplay:10.37,2013-10-09 02:05:00,
2013-10-08 22:10:00,55.7,51.6,0.00,NNW,333,0.0,0.0,86,0.00,CLR,CLR,0.03,WeatherDisplay:10.37,2013-10-09 02:10:00,
2013-10-08 22:15:00,55.6,51.5,0.00,NNW,333,0.0,0.0,86,0.00,CLR,CLR,0.03,WeatherDisplay:10.37,2013-10-09 02:15:00,
2013-10-08 22:20:00,55.5,51.7,0.00,NNW,333,0.0,0.0,87,0.00,CLR,CLR,0.03,WeatherDisplay:10.37,2013-10-09 02:20:00,
2013-10-08 22:25:00,55.5,51.4,0.00,WSW,241,1.2,1.2,86,0.00,CLR,CLR,0.03,WeatherDisplay:10.37,2013-10-09 02:25:00,
2013-10-08 22:30:00,55.4,51.6,0.00,WSW,254,0.0,0.0,87,0.00,CLR,CLR,0.03,WeatherDisplay:10.37,2013-10-09 02:30:00,
2013-10-08 22:35:00,55.3,51.8,0.00,WSW,254,0.0,0.0,88,0.00,CLR,CLR,0.03,WeatherDisplay:10.37,2013-10-09 02:35:00,
2013-10-08 22:40:00,55.2,51.7,0.00,WSW,254,0.0,0.0,88,0.00,CLR,CLR,0.03,WeatherDisplay:10.37,2013-10-09 02:40:00,
2013-10-08 22:45:00,55.1,51.9,0.00,WSW,254,0.0,0.0,89,0.00,CLR,CLR,0.03,WeatherDisplay:10.37,2013-10-09 02:45:00,
2013-10-08 22:50:00,54.9,51.7,0.00,SW,216,0.0,0.0,89,0.00,CLR,CLR,0.03,WeatherDisplay:10.37,2013-10-09 02:50:00,
2013-10-08 22:55:00,54.7,51.8,0.00,SW,216,0.0,0.0,90,0.00,CLR,CLR,0.03,WeatherDisplay:10.37,2013-10-09 02:55:00,
2013-10-08 23:00:00,54.5,51.6,0.00,SW,216,0.0,0.0,90,0.00,CLR,CLR,0.03,WeatherDisplay:10.37,2013-10-09 03:00:00,
2013-10-08 23:05:00,54.3,51.4,0.00,SW,216,0.0,0.0,90,0.00,CLR,CLR,0.03,WeatherDisplay:10.37,2013-10-09 03:05:00,
2013-10-08 23:10:00,54.2,51.6,0.00,WSW,250,1.1,1.1,91,0.00,CLR,CLR,0.03,WeatherDisplay:10.37,2013-10-09 03:10:00,
2013-10-08 23:15:00,54.1,51.8,0.00,SSW,196,0.0,0.0,92,0.00,CLR,CLR,0.03,WeatherDisplay:10.37,2013-10-09 03:15:00,
2013-10-08 23:20:00,53.9,51.3,0.00,WSW,237,1.8,1.8,91,0.00,CLR,CLR,0.03,WeatherDisplay:10.37,2013-10-09 03:20:00,
2013-10-08 23:25:00,53.9,51.3,0.00,SW,226,0.0,0.0,91,0.00,CLR,CLR,0.03,WeatherDisplay:10.37,2013-10-09 03:25:00,
2013-10-08 23:30:00,53.8,51.5,0.00,SW,226,0.0,0.0,92,0.00,CLR,CLR,0.03,WeatherDisplay:10.37,2013-10-09 03:30:00,
2013-10-08 23:35:00,53.6,51.3,0.00,SW,226,0.0,0.0,92,0.00,CLR,CLR,0.03,WeatherDisplay:10.37,2013-10-09 03:35:00,
2013-10-08 23:41:00,53.5,51.2,0.00,SW,226,0.0,0.0,92,0.00,CLR,CLR,0.03,WeatherDisplay:10.37,2013-10-09 03:41:00,
2013-10-08 23:46:00,53.3,51.0,0.00,WSW,240,2.0,2.0,92,0.00,CLR,CLR,0.03,WeatherDisplay:10.37,2013-10-09 03:46:00,
2013-10-08 23:51:00,53.2,51.2,0.00,SSW,203,0.0,0.0,93,0.00,CLR,CLR,0.03,WeatherDisplay:10.37,2013-10-09 03:51:00,
2013-10-08 23:56:00,53.1,51.1,0.00,SSW,203,0.0,0.0,93,0.00,CLR,CLR,0.03,WeatherDisplay:10.37,2013-10-09 03:56:00,